Terug naar catalogus

ONEWEB-0183

ActiefCommunicatiePO
NORAD 48219·PAYLOAD·🇬🇧 United Kingdom

Gelanceerd Apr 25, 2021 vanaf Vostochny Cosmodrome

Loading…

Volgende Passages (komende 24 uur)

TLE

VersSource: CelesTrak SupGP

Epoch: Sep 15, 2026, 02:13 UTC

1 48219C 21031K   26258.09288611 -.00002755  00000+0 -74386-2 0  2587
2 48219  87.8905 271.7743 0001967  97.9480 292.3600 13.14508466    15

Volg ONEWEB-0183 in realtime met AllMySat

Download on the App Store